Tracking 19575 objects as of 18-Feb-2019
HD Live streaming from Space Station
objects crossing your sky now

OSCAR 24

Track OSCAR 24 now!
10-day predictions
OSCAR 24 is classified as:


NORAD ID: 15936
Int'l Code: 1985-066B
Perigee: 1,007.1 km
Apogee: 1,259.1 km
Inclination: 90.1 °
Period: 107.8 minutes
Semi major axis: 7504 km
RCS: 1.6504 m2 (large)
Launch date: August 3, 1985
Source: United States (US)
Launch site: AIR FORCE WESTERN TEST RANGE (AFWTR)
aabbcc
Your satellite tracking list
Your tracking list is empty




NASA's NSSDC Master Catalog

Two Line Element Set (TLE):
1 15936U 85066B   19048.92050330 +.00000033 +00000-0 +47457-4 0  9990
2 15936 090.1309 051.6521 0167936 271.4349 149.7552 13.35532818634072
Source of the keplerian elements: AFSPC